Baia Mare, Romania

7:01 PM EEST on April 24, 2017 (GMT +0300)
Tautii Magheraus

Weather History for LRBM - April, 2013

Change the Weather History Date:

Sunday, April 7, 2013

  Actual Average Record
Temperature  
Mean Temperature 44 °F -  
Max Temperature 51 °F - - ()
Min Temperature 37 °F - - ()
Degree Days  
Heating Degree Days 21    
Moisture  
Dew Point 38 °F    
Average Humidity 79    
Maximum Humidity 93    
Minimum Humidity 66    
Precipitation  
Precipitation 0.00 in - - ()
Sea Level Pressure  
Sea Level Pressure 29.92 in    
Wind  
Wind Speed 5 mph ()    
Max Wind Speed 12 mph    
Max Gust Speed -    
Visibility 5.4 miles    
Events Rain    
T = Trace of Precipitation, MM = Missing Value Source: Averaged Metar Reports

Daily Weather History Graph

Daily Weather History Graph

Search for Another Location

Airport or City:

Trip Planner

Search our weather history database for the weather conditions in past years. The results will help you decide how hot, cold, wet, or windy it might be!

Date:

Astronomy

Apr. 07, 2013 Rise Set
Actual Time 6:52 AM EEST 8:04 PM EEST
Civil Twilight 6:21 AM EEST 8:36 PM EEST
Nautical Twilight 5:43 AM EEST 9:14 PM EEST
Astronomical Twilight 5:02 AM EEST 9:55 PM EEST
Moon 5:12 AM EEST (4/7) 5:06 PM EEST (4/7)
Length of Visible Light 14h 14m
Length of Day
13h 11m
Waning Crescent, 10% of the Moon is Illuminated
Apr 7
Waning Crescent
Apr 10
New
Apr 18
First Quarter
Apr 25
Full
May 2
Last Quarter

Hourly Weather History & Observations

Time (EEST) Temp. Windchill Dew Point Humidity Pressure Visibility Wind Dir Wind Speed Gust Speed Precip Events Conditions
12:00 AM 41.0 °F 38.0 °F 39.2 °F 93% 29.95 in - West 4.6 mph - N/A Rain Light Rain Showers
1:00 AM 41.0 °F 38.0 °F 39.2 °F 93% 29.95 in 3.7 mi West 4.6 mph - N/A   Scattered Clouds
2:00 AM 41.0 °F 38.0 °F 39.2 °F 93% 29.95 in 3.1 mi West 4.6 mph - N/A   Scattered Clouds
3:00 AM 41.0 °F 38.0 °F 37.4 °F 87% 29.98 in 4.3 mi WNW 4.6 mph - N/A   Scattered Clouds
4:00 AM 39.2 °F - 37.4 °F 93% 29.98 in 3.1 mi Variable 2.3 mph - N/A   Mostly Cloudy
5:00 AM 39.2 °F - 37.4 °F 93% 29.95 in - West 2.3 mph - N/A   Mostly Cloudy
6:00 AM 39.2 °F 35.9 °F 37.4 °F 93% 29.95 in 3.7 mi WNW 4.6 mph - N/A   Mostly Cloudy
6:30 AM 39.2 °F - 35.6 °F 87% 29.95 in 4.3 mi Variable 2.3 mph - N/A   Mostly Cloudy
7:00 AM 37.4 °F - 35.6 °F 93% 29.95 in 4.3 mi WSW 2.3 mph - N/A   Scattered Clouds
7:30 AM 39.2 °F - 35.6 °F 87% 29.98 in 4.3 mi Variable 2.3 mph - N/A   Scattered Clouds
8:00 AM 39.2 °F - 35.6 °F 87% 29.98 in 4.3 mi Variable 2.3 mph - N/A   Scattered Clouds
8:30 AM 39.2 °F - 37.4 °F 93% 29.98 in 4.3 mi Variable 2.3 mph - N/A   Scattered Clouds
9:00 AM 39.2 °F - 37.4 °F 93% 29.98 in 5.0 mi Variable 2.3 mph - N/A   Scattered Clouds
9:30 AM 41.0 °F 38.0 °F 37.4 °F 87% 29.98 in 5.0 mi West 4.6 mph - N/A   Scattered Clouds
10:00 AM 42.8 °F - 37.4 °F 81% 29.98 in 5.0 mi Variable 2.3 mph - N/A   Partly Cloudy
10:30 AM 42.8 °F - 39.2 °F 87% 29.95 in 6.2 mi Variable 2.3 mph - N/A   Scattered Clouds
11:00 AM 42.8 °F 40.1 °F 39.2 °F 87% 29.95 in 6.2 mi WSW 4.6 mph - N/A   Mostly Cloudy
11:30 AM 44.6 °F 42.2 °F 39.2 °F 81% 29.95 in 6.2 mi West 4.6 mph - N/A   Scattered Clouds
12:00 PM 48.2 °F - 41.0 °F 76% 29.95 in 6.2 mi WSW 4.6 mph - N/A   Scattered Clouds
12:30 PM 48.2 °F - 41.0 °F 76% 29.95 in 6.2 mi SW 4.6 mph - N/A   Scattered Clouds
1:00 PM 50.0 °F - 41.0 °F 71% 29.95 in 6.2 mi West 4.6 mph - N/A   Scattered Clouds
1:30 PM 50.0 °F - 39.2 °F 66% 29.92 in 6.2 mi Variable 6.9 mph - N/A   Scattered Clouds
2:00 PM 50.0 °F - 41.0 °F 71% 29.92 in 6.2 mi WSW 9.2 mph - N/A   Partly Cloudy
2:30 PM 51.8 °F - 42.8 °F 71% 29.92 in 6.2 mi WSW 11.5 mph - N/A   Scattered Clouds
3:00 PM 51.8 °F - 41.0 °F 67% 29.92 in 6.2 mi West 11.5 mph - N/A   Partly Cloudy
3:30 PM 51.8 °F - 41.0 °F 67% 29.89 in 6.2 mi West 11.5 mph - N/A   Scattered Clouds
4:00 PM 51.8 °F - 41.0 °F 67% 29.89 in 6.2 mi West 9.2 mph - N/A   Scattered Clouds
4:30 PM 50.0 °F - 39.2 °F 66% 29.89 in 6.2 mi West 11.5 mph - N/A   Partly Cloudy
5:00 PM 50.0 °F - 39.2 °F 66% 29.86 in 6.2 mi West 11.5 mph - N/A   Partly Cloudy
5:30 PM 50.0 °F - 39.2 °F 66% 29.86 in 6.2 mi West 11.5 mph - N/A   Partly Cloudy
6:00 PM 50.0 °F - 39.2 °F 66% 29.86 in 6.2 mi WNW 9.2 mph - N/A   Partly Cloudy
6:30 PM 50.0 °F - 39.2 °F 66% 29.83 in 6.2 mi West 9.2 mph - N/A   Partly Cloudy
7:00 PM 48.2 °F - 39.2 °F 71% 29.83 in 6.2 mi West 9.2 mph - N/A   Partly Cloudy
7:30 PM 48.2 °F - 37.4 °F 66% 29.86 in - WNW 6.9 mph - N/A   Clear
8:00 PM 46.4 °F 42.9 °F 37.4 °F 71% 29.86 in - WNW 6.9 mph - N/A   Clear
8:30 PM 46.4 °F 44.3 °F 37.4 °F 71% 29.86 in - WNW 4.6 mph - N/A   Clear
9:00 PM 44.6 °F 40.7 °F 37.4 °F 76% 29.86 in - WNW 6.9 mph - N/A   Clear
9:30 PM 44.6 °F 40.7 °F 37.4 °F 76% 29.86 in - WNW 6.9 mph - N/A   Clear
10:00 PM 42.8 °F 37.5 °F 35.6 °F 76% 29.86 in - WNW 9.2 mph - N/A   Clear
11:00 PM 41.0 °F 35.2 °F 33.8 °F 76% 29.86 in 6.2 mi WNW 9.2 mph - N/A   Scattered Clouds